GFSSE_prec_precacc24_141.txt.gz
Total_Precipitation_Accumulation
0.00 0.00 0.00 0.00 0.00 0.00 0.00 0.00 0.00 0.00 0.00 0.00 0.00 0.00 0.00 0.00 0.00 0.00 0.00 0.00 0.00 0.00 0.00 0.00 0.00 0.01 0.02 0.05 0.06 0.08 0.10 0.17 0.32 0.53 0.27 0.26 0.21 0.18 0.16 0.14 0.21 0.16 0.30
0.00 0.00 0.00 0.00 0.00 0.00 0.00 0.00 0.00 0.00 0.00 0.00 0.00 0.00 0.00 0.00 0.00 0.00 0.00 0.00 0.00 0.00 0.00 0.00 0.00 0.01 0.01 0.01 0.01 0.04 0.08 0.05 0.07 0.29 0.40 0.49 0.34 0.18 0.32 0.27 0.17 0.20 0.25
0.00 0.00 0.00 0.00 0.00 0.00 0.00 0.00 0.00 0.00 0.00 0.00 0.00 0.00 0.00 0.00 0.00 0.00 0.00 0.00 0.00 0.00 0.00 0.00 0.00 0.00 0.00 0.00 0.01 0.03 0.01 0.00 0.03 0.11 0.24 0.50 0.25 0.34 0.23 0.10 0.13 0.26 0.33
0.00 0.00 0.00 0.00 0.00 0.00 0.00 0.00 0.00 0.00 0.00 0.00 0.00 0.00 0.00 0.00 0.00 0.00 0.00 0.00 0.00 0.00 0.00 0.00 0.00 0.00 0.00 0.00 0.01 0.03 0.00 0.00 0.01 0.04 0.16 0.32 0.13 0.20 0.15 0.11 0.22 0.35 0.42
0.00 0.00 0.00 0.00 0.00 0.00 0.00 0.00 0.00 0.00 0.00 0.00 0.00 0.00 0.00 0.00 0.00 0.00 0.00 0.00 0.00 0.00 0.00 0.00 0.00 0.00 0.00 0.00 0.00 0.00 0.00 0.02 0.03 0.12 0.86 0.40 0.16 0.15 0.22 0.22 0.23 0.25 0.51
0.00 0.00 0.00 0.00 0.00 0.00 0.00 0.00 0.00 0.00 0.00 0.00 0.00 0.00 0.00 0.00 0.00 0.00 0.00 0.00 0.00 0.01 0.01 0.07 0.02 0.00 0.00 0.00 0.00 0.01 0.01 0.02 0.09 0.23 0.99 0.29 0.35 0.21 0.23 0.17 0.09 0.17 0.40
0.00 0.00 0.00 0.00 0.00 0.00 0.00 0.00 0.00 0.00 0.00 0.00 0.00 0.00 0.00 0.00 0.00 0.00 0.00 0.00 0.02 0.00 0.02 0.03 0.02 0.00 0.00 0.00 0.01 0.03 0.04 0.03 0.06 0.24 0.70 0.31 0.54 0.26 0.06 0.02 0.10 0.11 0.17
0.00 0.00 0.00 0.00 0.00 0.00 0.00 0.00 0.00 0.00 0.00 0.00 0.00 0.00 0.00 0.00 0.00 0.00 0.00 0.00 0.00 0.01 0.00 0.00 0.00 0.00 0.00 0.00 0.02 0.05 0.06 0.02 0.02 0.10 0.34 0.26 0.54 0.60 0.13 0.04 0.09 0.14 0.10
0.00 0.00 0.00 0.00 0.00 0.00 0.00 0.00 0.00 0.00 0.00 0.00 0.00 0.00 0.00 0.00 0.00 0.00 0.00 0.00 0.01 0.01 0.00 0.00 0.00 0.00 0.00 0.00 0.02 0.06 0.08 0.02 0.01 0.10 0.11 0.11 0.28 0.73 0.41 0.09 0.09 0.09 0.04
0.00 0.00 0.00 0.00 0.00 0.00 0.00 0.00 0.00 0.00 0.00 0.00 0.00 0.00 0.00 0.00 0.00 0.00 0.00 0.00 0.00 0.00 0.00 0.00 0.00 0.00 0.00 0.00 0.00 0.03 0.07 0.02 0.01 0.01 0.08 0.09 0.33 0.69 0.53 0.09 0.08 0.07 0.04
0.00 0.00 0.00 0.00 0.00 0.00 0.00 0.00 0.00 0.00 0.00 0.00 0.00 0.00 0.00 0.00 0.00 0.00 0.00 0.00 0.00 0.00 0.00 0.00 0.00 0.00 0.00 0.00 0.10 0.21 0.11 0.01 0.00 0.01 0.07 0.05 0.28 0.31 0.48 0.50 0.29 0.10 0.05
0.00 0.00 0.00 0.00 0.00 0.00 0.00 0.00 0.00 0.00 0.00 0.00 0.00 0.00 0.00 0.00 0.00 0.00 0.00 0.00 0.00 0.00 0.00 0.00 0.00 0.00 0.00 0.02 0.08 0.04 0.01 0.01 0.02 0.01 0.02 0.01 0.14 0.23 0.52 0.49 0.24 0.15 0.08
0.00 0.00 0.00 0.00 0.01 0.00 0.00 0.00 0.00 0.00 0.00 0.00 0.00 0.00 0.00 0.01 0.05 0.03 0.06 0.01 0.00 0.00 0.00 0.00 0.00 0.00 0.00 0.02 0.01 0.00 0.00 0.00 0.03 0.02 0.01 0.00 0.16 0.31 0.48 0.31 0.20 0.15 0.05
0.00 0.00 0.00 0.05 0.04 0.01 0.00 0.00 0.00 0.00 0.01 0.01 0.00 0.00 0.00 0.02 0.04 0.05 0.04 0.01 0.00 0.00 0.00 0.00 0.00 0.00 0.00 0.01 0.01 0.01 0.00 0.00 0.03 0.03 0.02 0.01 0.18 0.60 0.40 0.30 0.14 0.07 0.07
0.00 0.00 0.00 0.00 0.10 0.16 0.12 0.02 0.00 0.00 0.00 0.00 0.00 0.01 0.00 0.01 0.04 0.05 0.05 0.03 0.00 0.00 0.00 0.00 0.00 0.00 0.00 0.00 0.00 0.00 0.00 0.00 0.01 0.04 0.02 0.00 0.09 0.38 0.59 0.53 0.31 0.09 0.04
0.00 0.00 0.00 0.00 0.01 0.14 0.27 0.27 0.19 0.01 0.00 0.00 0.00 0.01 0.01 0.02 0.03 0.05 0.04 0.02 0.01 0.00 0.00 0.00 0.00 0.00 0.00 0.00 0.00 0.00 0.00 0.00 0.00 0.00 0.01 0.01 0.13 0.44 0.88 0.95 0.86 0.63 0.23
0.00 0.00 0.00 0.00 0.00 0.05 0.13 0.12 0.21 0.25 0.11 0.02 0.00 0.00 0.01 0.03 0.05 0.02 0.03 0.01 0.01 0.01 0.00 0.00 0.00 0.00 0.00 0.00 0.00 0.00 0.00 0.04 0.01 0.00 0.00 0.00 0.10 0.30 0.55 0.78 0.92 0.90 0.82
0.00 0.00 0.00 0.00 0.00 0.02 0.12 0.19 0.15 0.29 0.16 0.16 0.05 0.00 0.01 0.02 0.06 0.02 0.03 0.02 0.04 0.01 0.01 0.00 0.00 0.00 0.00 0.00 0.01 0.01 0.03 0.05 0.02 0.02 0.01 0.01 0.01 0.06 0.22 0.52 0.68 0.93 0.98
0.00 0.00 0.00 0.00 0.00 0.00 0.04 0.11 0.18 0.12 0.20 0.12 0.19 0.08 0.02 0.01 0.03 0.03 0.01 0.02 0.08 0.04 0.01 0.00 0.00 0.01 0.00 0.00 0.01 0.00 0.02 0.02 0.02 0.02 0.02 0.03 0.03 0.03 0.08 0.23 0.39 0.52 0.99
0.00 0.00 0.00 0.00 0.00 0.00 0.02 0.07 0.16 0.18 0.16 0.26 0.15 0.12 0.10 0.01 0.01 0.03 0.02 0.02 0.03 0.03 0.01 0.01 0.01 0.01 0.00 0.01 0.01 0.01 0.02 0.02 0.02 0.03 0.03 0.03 0.03 0.04 0.04 0.08 0.19 0.20 0.24
0.00 0.00 0.00 0.00 0.00 0.00 0.02 0.09 0.10 0.09 0.12 0.23 0.14 0.15 0.16 0.14 0.02 0.01 0.02 0.03 0.01 0.01 0.01 0.00 0.02 0.04 0.04 0.04 0.06 0.07 0.04 0.04 0.03 0.02 0.03 0.04 0.03 0.03 0.04 0.04 0.09 0.18 0.15
0.00 0.00 0.00 0.00 0.00 0.00 0.00 0.03 0.12 0.19 0.22 0.23 0.20 0.25 0.19 0.20 0.14 0.04 0.01 0.01 0.01 0.02 0.04 0.03 0.02 0.03 0.06 0.07 0.05 0.05 0.07 0.10 0.06 0.02 0.03 0.03 0.03 0.04 0.05 0.04 0.05 0.12 0.20
0.00 0.00 0.00 0.00 0.00 0.00 0.01 0.06 0.21 0.48 0.50 0.41 0.29 0.20 0.25 0.34 0.29 0.13 0.05 0.04 0.02 0.02 0.03 0.06 0.04 0.05 0.05 0.06 0.05 0.04 0.04 0.03 0.04 0.08 0.14 0.04 0.03 0.04 0.07 0.10 0.10 0.12 0.16
0.00 0.00 0.00 0.01 0.03 0.05 0.08 0.11 0.24 0.24 0.17 0.10 0.09 0.14 0.19 0.29 0.39 0.30 0.16 0.13 0.12 0.11 0.04 0.06 0.08 0.05 0.13 0.09 0.12 0.11 0.05 0.14 0.11 0.12 0.16 0.22 0.09 0.08 0.07 0.11 0.13 0.17 0.16
0.00 0.00 0.00 0.00 0.01 0.03 0.07 0.09 0.28 0.37 0.35 0.34 0.49 0.68 0.76 0.73 0.75 0.55 0.43 0.39 0.42 0.32 0.20 0.22 0.27 0.21 0.24 0.35 0.15 0.10 0.13 0.17 0.18 0.17 0.15 0.23 0.37 0.25 0.18 0.16 0.20 0.20 0.20
0.01 0.01 0.01 0.00 0.00 0.02 0.12 0.12 0.18 0.25 0.35 0.42 0.46 0.58 0.75 0.90 1.02 1.00 0.94 0.84 0.86 0.77 0.53 0.39 0.35 0.30 0.23 0.25 0.33 0.27 0.19 0.15 0.16 0.28 0.27 0.28 0.41 0.34 0.28 0.34 0.28 0.26 0.31

GFSSE_prec_precacc24_147.txt.gz
Total_Precipitation_Accumulation
0.00 0.00 0.00 0.00 0.00 0.00 0.00 0.00 0.00 0.00 0.00 0.00 0.00 0.00 0.00 0.00 0.00 0.00 0.00 0.00 0.00 0.00 0.00 0.00 0.00 0.00 0.02 0.01 0.03 0.04 0.03 0.06 0.16 0.40 0.23 0.20 0.18 0.18 0.20 0.17 0.28 0.24 0.40
0.00 0.00 0.00 0.00 0.00 0.00 0.00 0.00 0.00 0.00 0.00 0.00 0.00 0.00 0.00 0.00 0.00 0.00 0.00 0.00 0.00 0.00 0.00 0.00 0.00 0.01 0.01 0.00 0.02 0.02 0.04 0.01 0.05 0.21 0.41 0.53 0.36 0.19 0.34 0.29 0.22 0.26 0.30
0.00 0.00 0.00 0.00 0.00 0.00 0.00 0.00 0.00 0.00 0.00 0.00 0.00 0.00 0.00 0.00 0.00 0.00 0.00 0.00 0.00 0.00 0.00 0.00 0.00 0.00 0.00 0.01 0.02 0.01 0.02 0.01 0.03 0.08 0.18 0.39 0.36 0.38 0.23 0.10 0.14 0.34 0.46
0.00 0.00 0.00 0.00 0.00 0.00 0.00 0.00 0.00 0.00 0.00 0.00 0.00 0.00 0.00 0.00 0.00 0.00 0.00 0.00 0.00 0.00 0.00 0.00 0.00 0.00 0.00 0.00 0.01 0.00 0.00 0.01 0.01 0.04 0.16 0.23 0.13 0.18 0.15 0.09 0.21 0.38 0.50
0.00 0.00 0.00 0.00 0.00 0.00 0.00 0.00 0.00 0.00 0.00 0.00 0.00 0.00 0.00 0.00 0.00 0.00 0.00 0.00 0.00 0.00 0.00 0.00 0.00 0.00 0.00 0.00 0.00 0.00 0.00 0.00 0.00 0.11 0.84 0.39 0.13 0.10 0.15 0.15 0.19 0.24 0.50
0.00 0.00 0.01 0.01 0.00 0.00 0.00 0.00 0.00 0.00 0.00 0.00 0.00 0.00 0.00 0.00 0.00 0.00 0.00 0.00 0.00 0.01 0.00 0.00 0.00 0.00 0.00 0.00 0.00 0.00 0.00 0.00 0.02 0.20 0.93 0.21 0.20 0.17 0.17 0.16 0.07 0.13 0.35
0.00 0.00 0.00 0.01 0.01 0.00 0.00 0.00 0.00 0.00 0.00 0.00 0.00 0.00 0.00 0.00 0.00 0.00 0.00 0.00 0.00 0.00 0.00 0.00 0.00 0.00 0.00 0.00 0.00 0.00 0.00 0.00 0.02 0.21 0.60 0.19 0.31 0.26 0.05 0.02 0.08 0.07 0.13
0.00 0.00 0.00 0.00 0.00 0.00 0.00 0.00 0.00 0.00 0.00 0.00 0.00 0.00 0.00 0.00 0.00 0.00 0.00 0.00 0.00 0.00 0.00 0.00 0.00 0.00 0.00 0.00 0.00 0.00 0.00 0.00 0.02 0.08 0.14 0.11 0.25 0.56 0.12 0.04 0.03 0.08 0.09
0.00 0.00 0.00 0.00 0.00 0.00 0.00 0.00 0.00 0.00 0.00 0.00 0.00 0.00 0.00 0.00 0.00 0.00 0.00 0.00 0.00 0.00 0.00 0.00 0.00 0.00 0.00 0.00 0.00 0.00 0.00 0.00 0.01 0.10 0.09 0.09 0.16 0.66 0.36 0.06 0.04 0.05 0.04
0.00 0.00 0.00 0.00 0.00 0.00 0.00 0.00 0.00 0.00 0.00 0.00 0.00 0.00 0.00 0.00 0.00 0.00 0.00 0.00 0.00 0.00 0.00 0.00 0.00 0.00 0.00 0.00 0.00 0.00 0.00 0.00 0.01 0.02 0.03 0.05 0.23 0.63 0.47 0.07 0.07 0.07 0.04
0.00 0.00 0.00 0.00 0.00 0.00 0.00 0.00 0.00 0.01 0.01 0.00 0.00 0.00 0.00 0.00 0.00 0.00 0.00 0.00 0.00 0.00 0.00 0.00 0.00 0.00 0.00 0.00 0.00 0.00 0.00 0.00 0.00 0.01 0.02 0.02 0.17 0.26 0.46 0.48 0.29 0.10 0.05
0.00 0.00 0.00 0.00 0.00 0.00 0.00 0.01 0.00 0.01 0.01 0.01 0.00 0.00 0.00 0.00 0.00 0.00 0.00 0.00 0.00 0.00 0.00 0.00 0.00 0.00 0.00 0.00 0.00 0.00 0.00 0.01 0.01 0.01 0.02 0.01 0.10 0.21 0.47 0.52 0.24 0.15 0.08
0.00 0.00 0.00 0.01 0.01 0.00 0.00 0.01 0.02 0.01 0.01 0.01 0.02 0.00 0.00 0.01 0.05 0.03 0.06 0.01 0.00 0.00 0.00 0.00 0.00 0.00 0.00 0.01 0.00 0.00 0.00 0.00 0.00 0.01 0.01 0.00 0.13 0.30 0.44 0.31 0.20 0.15 0.05
0.00 0.00 0.00 0.05 0.05 0.01 0.01 0.04 0.06 0.01 0.02 0.02 0.01 0.03 0.02 0.03 0.04 0.05 0.04 0.01 0.00 0.00 0.00 0.00 0.00 0.00 0.00 0.00 0.01 0.01 0.00 0.00 0.02 0.03 0.01 0.03 0.11 0.37 0.39 0.31 0.14 0.06 0.07
0.00 0.00 0.00 0.00 0.10 0.16 0.14 0.16 0.07 0.03 0.04 0.02 0.01 0.03 0.02 0.04 0.06 0.05 0.05 0.03 0.00 0.00 0.00 0.00 0.00 0.00 0.00 0.00 0.00 0.00 0.00 0.00 0.01 0.04 0.02 0.01 0.06 0.23 0.46 0.52 0.35 0.09 0.03
0.00 0.00 0.00 0.00 0.01 0.14 0.27 0.32 0.31 0.15 0.15 0.14 0.08 0.10 0.19 0.19 0.14 0.11 0.05 0.02 0.01 0.00 0.00 0.00 0.00 0.00 0.00 0.00 0.00 0.00 0.00 0.00 0.00 0.00 0.00 0.01 0.09 0.23 0.47 0.81 0.83 0.67 0.25
0.00 0.00 0.00 0.00 0.00 0.05 0.13 0.12 0.32 0.40 0.29 0.24 0.27 0.29 0.34 0.32 0.25 0.15 0.10 0.02 0.01 0.01 0.00 0.00 0.00 0.00 0.00 0.00 0.00 0.00 0.00 0.00 0.00 0.00 0.00 0.00 0.05 0.12 0.16 0.35 0.70 0.83 0.83
0.00 0.00 0.00 0.00 0.00 0.02 0.12 0.19 0.16 0.38 0.44 0.46 0.35 0.33 0.47 0.47 0.36 0.21 0.14 0.07 0.05 0.01 0.01 0.00 0.00 0.00 0.00 0.00 0.00 0.00 0.00 0.00 0.00 0.00 0.00 0.00 0.00 0.02 0.07 0.10 0.26 0.69 0.90
0.00 0.00 0.00 0.00 0.00 0.00 0.04 0.11 0.18 0.12 0.24 0.32 0.48 0.39 0.23 0.27 0.32 0.28 0.17 0.07 0.10 0.04 0.01 0.00 0.00 0.01 0.00 0.00 0.01 0.00 0.00 0.00 0.00 0.00 0.00 0.00 0.00 0.00 0.04 0.08 0.14 0.41 0.92
0.00 0.00 0.00 0.00 0.00 0.00 0.02 0.07 0.16 0.18 0.16 0.29 0.29 0.34 0.33 0.31 0.35 0.41 0.31 0.17 0.06 0.04 0.02 0.01 0.01 0.02 0.01 0.01 0.00 0.01 0.01 0.01 0.01 0.01 0.01 0.00 0.00 0.00 0.01 0.05 0.14 0.17 0.21
0.00 0.00 0.00 0.00 0.00 0.00 0.02 0.09 0.10 0.09 0.12 0.23 0.15 0.20 0.33 0.47 0.61 0.61 0.42 0.39 0.26 0.16 0.07 0.02 0.08 0.10 0.04 0.03 0.04 0.03 0.02 0.03 0.02 0.01 0.02 0.01 0.01 0.01 0.01 0.03 0.09 0.18 0.14
0.00 0.00 0.00 0.00 0.00 0.00 0.00 0.02 0.08 0.12 0.18 0.22 0.18 0.25 0.23 0.37 0.46 0.51 0.45 0.47 0.48 0.48 0.30 0.13 0.09 0.09 0.09 0.07 0.03 0.03 0.03 0.02 0.02 0.01 0.01 0.01 0.01 0.01 0.01 0.02 0.04 0.12 0.19
0.00 0.00 0.00 0.00 0.00 0.00 0.00 0.02 0.14 0.24 0.33 0.36 0.26 0.19 0.21 0.35 0.49 0.44 0.37 0.41 0.51 0.85 0.90 0.32 0.11 0.12 0.10 0.09 0.04 0.03 0.02 0.02 0.02 0.02 0.01 0.01 0.01 0.01 0.02 0.04 0.09 0.13 0.16
0.00 0.00 0.00 0.00 0.00 0.00 0.00 0.01 0.12 0.14 0.13 0.10 0.08 0.11 0.16 0.28 0.47 0.51 0.59 0.66 0.67 0.61 0.70 0.75 0.38 0.19 0.25 0.16 0.15 0.09 0.04 0.14 0.10 0.09 0.04 0.01 0.01 0.02 0.02 0.07 0.17 0.23 0.18
0.00 0.00 0.00 0.00 0.00 0.00 0.00 0.00 0.16 0.23 0.18 0.27 0.49 0.66 0.75 0.73 0.78 0.66 0.79 1.05 1.18 1.31 1.01 1.11 1.07 0.61 0.43 0.45 0.21 0.12 0.12 0.16 0.16 0.15 0.09 0.09 0.08 0.05 0.06 0.13 0.25 0.30 0.26
0.01 0.01 0.01 0.00 0.00 0.02 0.10 0.09 0.15 0.22 0.29 0.36 0.42 0.57 0.72 0.88 1.02 1.03 1.08 1.27 1.73 1.80 1.70 1.38 1.24 1.09 0.58 0.45 0.46 0.37 0.20 0.14 0.15 0.24 0.17 0.15 0.25 0.18 0.15 0.23 0.30 0.35 0.51

GFSSE_prec_precacc24_150.txt.gz
Total_Precipitation_Accumulation
0.00 0.00 0.00 0.00 0.00 0.00 0.00 0.00 0.00 0.00 0.00 0.00 0.00 0.00 0.00 0.00 0.00 0.00 0.00 0.00 0.00 0.00 0.00 0.00 0.00 0.00 0.01 0.01 0.02 0.04 0.03 0.06 0.13 0.30 0.21 0.17 0.15 0.13 0.18 0.17 0.28 0.27 0.41
0.00 0.00 0.00 0.00 0.00 0.00 0.00 0.00 0.00 0.00 0.00 0.00 0.00 0.00 0.00 0.00 0.00 0.00 0.00 0.00 0.00 0.00 0.00 0.00 0.00 0.00 0.00 0.00 0.01 0.02 0.04 0.01 0.03 0.12 0.31 0.38 0.32 0.18 0.29 0.28 0.22 0.24 0.28
0.00 0.00 0.00 0.00 0.00 0.00 0.00 0.00 0.00 0.00 0.00 0.00 0.00 0.00 0.00 0.00 0.00 0.00 0.00 0.00 0.00 0.00 0.00 0.00 0.00 0.00 0.00 0.01 0.02 0.01 0.02 0.01 0.01 0.02 0.06 0.10 0.25 0.39 0.22 0.09 0.12 0.33 0.44
0.00 0.00 0.00 0.00 0.00 0.00 0.00 0.00 0.00 0.00 0.00 0.00 0.00 0.00 0.00 0.00 0.00 0.00 0.00 0.00 0.00 0.00 0.00 0.00 0.00 0.00 0.00 0.00 0.01 0.00 0.00 0.01 0.01 0.03 0.15 0.18 0.12 0.17 0.14 0.08 0.19 0.36 0.46
0.01 0.00 0.00 0.00 0.00 0.00 0.00 0.00 0.00 0.00 0.00 0.00 0.00 0.00 0.00 0.00 0.00 0.00 0.00 0.00 0.00 0.00 0.00 0.00 0.00 0.00 0.00 0.00 0.00 0.00 0.00 0.00 0.00 0.11 0.83 0.38 0.12 0.09 0.14 0.14 0.16 0.18 0.41
0.00 0.01 0.01 0.01 0.00 0.00 0.00 0.00 0.00 0.00 0.00 0.00 0.00 0.00 0.00 0.00 0.00 0.00 0.00 0.00 0.00 0.00 0.00 0.00 0.00 0.00 0.00 0.00 0.00 0.00 0.00 0.00 0.02 0.20 0.93 0.21 0.16 0.16 0.14 0.15 0.06 0.11 0.31
0.00 0.00 0.00 0.01 0.01 0.00 0.00 0.00 0.00 0.00 0.00 0.00 0.00 0.00 0.00 0.00 0.00 0.00 0.00 0.00 0.00 0.00 0.00 0.00 0.00 0.00 0.00 0.00 0.00 0.00 0.00 0.00 0.02 0.21 0.60 0.19 0.22 0.19 0.05 0.02 0.08 0.06 0.10
0.00 0.00 0.00 0.00 0.00 0.00 0.00 0.00 0.00 0.00 0.00 0.00 0.00 0.00 0.00 0.00 0.00 0.00 0.00 0.00 0.00 0.00 0.00 0.00 0.00 0.00 0.00 0.00 0.00 0.00 0.00 0.00 0.02 0.08 0.14 0.11 0.19 0.40 0.11 0.03 0.02 0.05 0.10
0.00 0.00 0.00 0.00 0.00 0.00 0.00 0.01 0.00 0.00 0.00 0.00 0.00 0.00 0.00 0.00 0.00 0.00 0.00 0.00 0.00 0.00 0.00 0.00 0.00 0.00 0.00 0.00 0.00 0.00 0.00 0.00 0.01 0.10 0.09 0.09 0.15 0.62 0.36 0.06 0.04 0.05 0.06
0.00 0.00 0.00 0.00 0.00 0.00 0.00 0.00 0.00 0.03 0.07 0.02 0.00 0.00 0.00 0.00 0.00 0.00 0.00 0.00 0.00 0.00 0.00 0.00 0.00 0.00 0.00 0.00 0.00 0.00 0.00 0.00 0.01 0.02 0.03 0.05 0.20 0.59 0.42 0.06 0.07 0.07 0.05
0.00 0.00 0.00 0.00 0.00 0.00 0.00 0.00 0.01 0.06 0.10 0.06 0.02 0.01 0.00 0.00 0.00 0.00 0.00 0.00 0.00 0.00 0.00 0.00 0.00 0.00 0.00 0.00 0.00 0.00 0.00 0.00 0.00 0.01 0.02 0.01 0.14 0.25 0.43 0.51 0.29 0.10 0.05
0.00 0.00 0.00 0.00 0.00 0.00 0.00 0.01 0.00 0.02 0.05 0.05 0.06 0.19 0.10 0.01 0.00 0.00 0.00 0.00 0.00 0.00 0.00 0.00 0.00 0.00 0.00 0.00 0.00 0.00 0.00 0.01 0.01 0.01 0.02 0.00 0.11 0.19 0.41 0.52 0.26 0.15 0.08
0.00 0.00 0.00 0.01 0.01 0.00 0.00 0.01 0.03 0.02 0.02 0.03 0.04 0.05 0.05 0.05 0.06 0.04 0.06 0.01 0.00 0.00 0.00 0.00 0.00 0.00 0.00 0.00 0.00 0.00 0.00 0.00 0.00 0.01 0.01 0.00 0.13 0.27 0.35 0.29 0.21 0.16 0.05
0.00 0.00 0.00 0.05 0.05 0.01 0.01 0.04 0.06 0.01 0.02 0.03 0.05 0.07 0.06 0.11 0.12 0.08 0.05 0.01 0.00 0.00 0.00 0.00 0.00 0.00 0.00 0.00 0.01 0.01 0.00 0.00 0.02 0.03 0.01 0.03 0.06 0.23 0.33 0.31 0.16 0.06 0.07
0.00 0.00 0.00 0.00 0.10 0.16 0.14 0.16 0.07 0.03 0.04 0.02 0.02 0.04 0.06 0.13 0.16 0.21 0.17 0.11 0.01 0.00 0.00 0.00 0.00 0.00 0.00 0.00 0.00 0.00 0.00 0.00 0.01 0.04 0.02 0.01 0.01 0.12 0.34 0.47 0.30 0.07 0.02
0.00 0.00 0.00 0.00 0.01 0.14 0.27 0.32 0.31 0.15 0.15 0.14 0.08 0.10 0.22 0.36 0.37 0.35 0.23 0.15 0.04 0.01 0.00 0.00 0.00 0.00 0.00 0.00 0.00 0.00 0.00 0.00 0.00 0.00 0.00 0.00 0.00 0.08 0.29 0.60 0.73 0.61 0.21
0.00 0.00 0.00 0.00 0.00 0.05 0.13 0.12 0.32 0.40 0.29 0.24 0.27 0.29 0.36 0.38 0.35 0.35 0.30 0.11 0.06 0.05 0.02 0.00 0.00 0.00 0.00 0.00 0.00 0.00 0.00 0.00 0.00 0.00 0.00 0.00 0.00 0.02 0.05 0.16 0.45 0.71 0.74
0.00 0.00 0.00 0.00 0.00 0.02 0.12 0.19 0.16 0.38 0.44 0.46 0.35 0.33 0.47 0.49 0.44 0.36 0.28 0.17 0.19 0.11 0.06 0.01 0.01 0.00 0.00 0.00 0.00 0.00 0.00 0.00 0.00 0.00 0.00 0.00 0.00 0.01 0.05 0.04 0.08 0.29 0.56
0.00 0.00 0.00 0.00 0.00 0.00 0.04 0.11 0.18 0.12 0.24 0.32 0.48 0.39 0.23 0.27 0.33 0.36 0.29 0.29 0.51 0.49 0.18 0.07 0.04 0.02 0.00 0.00 0.01 0.00 0.00 0.00 0.00 0.01 0.01 0.00 0.00 0.00 0.03 0.02 0.01 0.06 0.23
0.00 0.00 0.00 0.00 0.00 0.00 0.02 0.07 0.16 0.18 0.16 0.29 0.29 0.34 0.33 0.31 0.35 0.42 0.33 0.21 0.23 0.47 0.45 0.18 0.06 0.04 0.02 0.01 0.01 0.01 0.01 0.00 0.00 0.01 0.01 0.00 0.00 0.00 0.00 0.02 0.06 0.06 0.04
0.00 0.00 0.00 0.00 0.00 0.00 0.02 0.09 0.10 0.08 0.12 0.23 0.15 0.20 0.33 0.47 0.61 0.61 0.43 0.42 0.34 0.33 0.42 0.57 0.40 0.23 0.12 0.09 0.07 0.03 0.02 0.02 0.02 0.01 0.01 0.01 0.00 0.00 0.00 0.01 0.03 0.11 0.06
0.00 0.00 0.00 0.00 0.00 0.00 0.00 0.02 0.08 0.12 0.18 0.22 0.18 0.25 0.23 0.37 0.45 0.48 0.44 0.49 0.55 0.59 0.47 0.38 0.36 0.21 0.20 0.20 0.10 0.05 0.04 0.02 0.02 0.01 0.01 0.00 0.00 0.00 0.00 0.00 0.00 0.08 0.16
0.00 0.00 0.00 0.00 0.00 0.00 0.00 0.02 0.14 0.23 0.31 0.35 0.25 0.19 0.18 0.33 0.45 0.41 0.34 0.40 0.53 0.91 1.11 0.77 0.62 0.45 0.25 0.21 0.17 0.08 0.05 0.02 0.02 0.02 0.01 0.01 0.01 0.01 0.01 0.02 0.02 0.06 0.11
0.00 0.00 0.00 0.00 0.00 0.00 0.00 0.01 0.11 0.12 0.11 0.08 0.07 0.06 0.06 0.21 0.42 0.50 0.57 0.65 0.64 0.61 0.79 1.08 0.87 0.69 0.73 0.47 0.37 0.25 0.14 0.16 0.10 0.09 0.04 0.01 0.01 0.01 0.01 0.04 0.07 0.08 0.10
0.00 0.00 0.00 0.00 0.00 0.00 0.00 0.00 0.10 0.16 0.13 0.16 0.26 0.38 0.46 0.53 0.69 0.62 0.78 1.03 1.16 1.29 1.01 1.18 1.39 1.41 1.17 0.97 0.72 0.39 0.32 0.27 0.21 0.15 0.09 0.09 0.08 0.04 0.05 0.11 0.15 0.14 0.20
0.01 0.01 0.01 0.00 0.00 0.01 0.08 0.06 0.09 0.16 0.25 0.30 0.29 0.32 0.45 0.66 0.91 0.98 1.05 1.24 1.71 1.78 1.68 1.37 1.26 1.57 1.74 1.56 1.17 1.02 0.49 0.28 0.21 0.26 0.17 0.14 0.24 0.17 0.13 0.16 0.17 0.19 0.39

GFSSE_prec_precacc24_153.txt.gz
Total_Precipitation_Accumulation
0.00 0.00 0.00 0.00 0.00 0.00 0.00 0.00 0.00 0.00 0.00 0.00 0.00 0.00 0.00 0.00 0.00 0.00 0.00 0.00 0.00 0.00 0.00 0.00 0.00 0.00 0.01 0.01 0.02 0.04 0.03 0.05 0.08 0.14 0.15 0.14 0.12 0.11 0.17 0.17 0.27 0.26 0.34
0.00 0.00 0.00 0.00 0.00 0.00 0.00 0.00 0.00 0.00 0.00 0.00 0.00 0.00 0.00 0.00 0.00 0.00 0.00 0.00 0.00 0.00 0.00 0.00 0.00 0.00 0.00 0.00 0.01 0.02 0.04 0.01 0.01 0.05 0.12 0.25 0.17 0.11 0.18 0.16 0.18 0.21 0.24
0.00 0.00 0.00 0.00 0.00 0.00 0.00 0.00 0.00 0.00 0.00 0.00 0.00 0.00 0.00 0.00 0.00 0.00 0.00 0.00 0.00 0.00 0.00 0.00 0.00 0.00 0.00 0.01 0.02 0.01 0.02 0.01 0.01 0.02 0.03 0.04 0.18 0.38 0.19 0.06 0.08 0.27 0.41
0.00 0.00 0.00 0.00 0.00 0.00 0.00 0.00 0.00 0.00 0.00 0.00 0.00 0.00 0.00 0.00 0.00 0.00 0.00 0.00 0.00 0.00 0.00 0.00 0.00 0.00 0.00 0.00 0.01 0.00 0.00 0.01 0.01 0.03 0.15 0.18 0.11 0.13 0.11 0.02 0.10 0.27 0.41
0.01 0.00 0.00 0.00 0.00 0.00 0.00 0.00 0.00 0.00 0.00 0.00 0.00 0.00 0.00 0.00 0.00 0.00 0.00 0.00 0.00 0.00 0.00 0.00 0.00 0.00 0.00 0.00 0.00 0.00 0.00 0.00 0.00 0.11 0.83 0.38 0.11 0.08 0.10 0.03 0.09 0.14 0.31
0.00 0.02 0.03 0.02 0.01 0.01 0.00 0.00 0.00 0.00 0.00 0.00 0.00 0.00 0.00 0.00 0.00 0.00 0.00 0.00 0.00 0.00 0.00 0.00 0.00 0.00 0.00 0.00 0.00 0.00 0.00 0.00 0.02 0.20 0.93 0.21 0.16 0.15 0.05 0.04 0.04 0.11 0.26
0.00 0.00 0.01 0.03 0.03 0.01 0.01 0.00 0.00 0.00 0.00 0.00 0.00 0.00 0.00 0.00 0.00 0.00 0.00 0.00 0.00 0.00 0.00 0.00 0.00 0.00 0.00 0.00 0.00 0.00 0.00 0.00 0.02 0.21 0.60 0.19 0.19 0.17 0.03 0.02 0.08 0.06 0.11
0.00 0.00 0.00 0.00 0.02 0.01 0.01 0.01 0.01 0.00 0.00 0.00 0.00 0.00 0.01 0.00 0.00 0.00 0.00 0.00 0.00 0.00 0.00 0.00 0.00 0.00 0.00 0.00 0.00 0.00 0.00 0.00 0.02 0.08 0.14 0.11 0.16 0.28 0.10 0.03 0.02 0.05 0.10
0.00 0.00 0.00 0.00 0.00 0.01 0.01 0.03 0.01 0.01 0.05 0.03 0.01 0.00 0.02 0.02 0.00 0.00 0.00 0.00 0.00 0.00 0.00 0.00 0.00 0.00 0.00 0.00 0.00 0.00 0.00 0.00 0.01 0.10 0.09 0.09 0.13 0.42 0.33 0.05 0.01 0.03 0.07
0.00 0.00 0.00 0.00 0.00 0.00 0.00 0.04 0.08 0.06 0.10 0.07 0.08 0.08 0.04 0.01 0.00 0.00 0.00 0.00 0.00 0.00 0.00 0.00 0.00 0.00 0.00 0.00 0.00 0.00 0.00 0.00 0.01 0.02 0.03 0.05 0.18 0.42 0.36 0.08 0.06 0.06 0.07
0.00 0.00 0.00 0.00 0.00 0.00 0.00 0.00 0.03 0.10 0.15 0.08 0.08 0.14 0.11 0.05 0.00 0.00 0.00 0.00 0.00 0.00 0.00 0.00 0.00 0.00 0.00 0.00 0.00 0.00 0.00 0.00 0.00 0.01 0.02 0.01 0.10 0.16 0.37 0.49 0.18 0.08 0.05
0.00 0.00 0.00 0.00 0.00 0.00 0.00 0.01 0.00 0.02 0.07 0.10 0.07 0.22 0.16 0.09 0.12 0.12 0.07 0.03 0.01 0.02 0.00 0.00 0.00 0.00 0.00 0.00 0.00 0.00 0.00 0.01 0.01 0.01 0.02 0.00 0.11 0.18 0.28 0.34 0.15 0.10 0.08
0.00 0.00 0.00 0.01 0.01 0.00 0.00 0.01 0.03 0.02 0.02 0.05 0.06 0.09 0.09 0.08 0.10 0.16 0.09 0.02 0.00 0.01 0.00 0.00 0.00 0.00 0.00 0.00 0.00 0.00 0.00 0.00 0.00 0.01 0.01 0.00 0.11 0.25 0.24 0.26 0.23 0.20 0.09
0.00 0.00 0.00 0.05 0.05 0.01 0.01 0.04 0.06 0.01 0.02 0.03 0.05 0.10 0.09 0.13 0.16 0.11 0.09 0.07 0.01 0.00 0.00 0.00 0.00 0.00 0.00 0.00 0.01 0.01 0.00 0.00 0.02 0.03 0.01 0.03 0.06 0.18 0.27 0.30 0.18 0.10 0.10
0.00 0.00 0.00 0.00 0.10 0.16 0.14 0.16 0.07 0.03 0.04 0.02 0.02 0.03 0.06 0.13 0.18 0.24 0.20 0.23 0.10 0.02 0.01 0.03 0.01 0.00 0.00 0.00 0.00 0.00 0.00 0.00 0.01 0.04 0.02 0.01 0.01 0.06 0.21 0.36 0.26 0.07 0.04
0.00 0.00 0.00 0.00 0.01 0.14 0.27 0.32 0.31 0.15 0.15 0.14 0.08 0.10 0.22 0.36 0.38 0.39 0.28 0.21 0.06 0.05 0.06 0.03 0.06 0.03 0.00 0.00 0.00 0.00 0.00 0.00 0.00 0.00 0.00 0.00 0.00 0.01 0.11 0.31 0.52 0.58 0.20
0.00 0.00 0.00 0.00 0.00 0.05 0.13 0.12 0.32 0.40 0.29 0.24 0.27 0.29 0.35 0.38 0.35 0.35 0.31 0.13 0.08 0.10 0.15 0.09 0.06 0.05 0.02 0.00 0.00 0.00 0.00 0.00 0.00 0.00 0.00 0.00 0.00 0.00 0.00 0.06 0.20 0.45 0.59
0.00 0.00 0.00 0.00 0.00 0.02 0.12 0.19 0.16 0.38 0.44 0.46 0.35 0.33 0.47 0.48 0.43 0.35 0.27 0.18 0.22 0.27 0.27 0.18 0.21 0.20 0.11 0.01 0.00 0.00 0.00 0.00 0.00 0.00 0.00 0.00 0.00 0.00 0.01 0.01 0.01 0.08 0.27
0.00 0.00 0.00 0.00 0.00 0.00 0.04 0.11 0.18 0.12 0.24 0.32 0.48 0.39 0.23 0.27 0.33 0.36 0.29 0.29 0.53 0.65 0.72 0.69 0.58 0.36 0.18 0.10 0.01 0.00 0.00 0.00 0.00 0.01 0.01 0.00 0.00 0.00 0.01 0.00 0.00 0.00 0.02
0.00 0.00 0.00 0.00 0.00 0.00 0.02 0.07 0.16 0.18 0.16 0.29 0.29 0.34 0.33 0.31 0.35 0.42 0.33 0.21 0.23 0.49 0.56 0.50 0.24 0.16 0.11 0.10 0.03 0.01 0.01 0.00 0.00 0.01 0.01 0.00 0.00 0.00 0.00 0.02 0.03 0.02 0.00
0.00 0.00 0.00 0.00 0.00 0.00 0.02 0.08 0.10 0.08 0.12 0.23 0.15 0.20 0.33 0.47 0.61 0.61 0.43 0.42 0.34 0.34 0.46 0.84 0.92 0.91 0.61 0.29 0.17 0.06 0.02 0.02 0.01 0.01 0.01 0.01 0.00 0.00 0.00 0.00 0.02 0.06 0.03
0.00 0.00 0.00 0.00 0.00 0.00 0.00 0.02 0.07 0.11 0.18 0.22 0.18 0.25 0.23 0.37 0.45 0.48 0.45 0.49 0.55 0.60 0.48 0.41 0.52 0.47 0.40 0.31 0.26 0.15 0.08 0.03 0.02 0.01 0.01 0.00 0.00 0.00 0.00 0.00 0.00 0.02 0.06
0.00 0.00 0.00 0.00 0.00 0.00 0.00 0.02 0.14 0.22 0.31 0.35 0.25 0.19 0.18 0.33 0.45 0.41 0.34 0.39 0.53 0.92 1.11 0.78 0.67 0.70 0.57 0.43 0.29 0.21 0.17 0.08 0.03 0.02 0.00 0.00 0.00 0.00 0.01 0.01 0.01 0.02 0.04
0.00 0.00 0.00 0.00 0.00 0.00 0.00 0.01 0.11 0.12 0.11 0.08 0.07 0.05 0.05 0.15 0.31 0.37 0.47 0.56 0.59 0.56 0.79 1.09 0.90 0.76 0.85 0.78 0.78 0.55 0.31 0.26 0.14 0.09 0.04 0.01 0.01 0.00 0.00 0.04 0.07 0.07 0.04
0.00 0.00 0.00 0.00 0.00 0.00 0.00 0.00 0.10 0.15 0.12 0.15 0.23 0.29 0.34 0.28 0.29 0.26 0.44 0.73 0.95 1.16 0.96 1.18 1.40 1.43 1.21 1.07 1.05 0.96 0.87 0.78 0.57 0.28 0.13 0.09 0.08 0.04 0.05 0.11 0.14 0.12 0.08
0.01 0.01 0.01 0.00 0.00 0.01 0.08 0.06 0.08 0.14 0.22 0.25 0.24 0.27 0.35 0.44 0.36 0.32 0.35 0.60 1.25 1.64 1.58 1.26 1.13 1.51 1.73 1.57 1.18 1.17 0.85 0.54 0.47 0.49 0.29 0.18 0.25 0.17 0.13 0.15 0.16 0.17 0.25